Back to catalog

HULIANWANG DIGUI-109

AliveCommunicationsLEO
NORAD 66919·PAYLOAD·🇨🇳 China

Launched Dec 6, 2025 from Wenchang Space Launch Site

Loading…

Next Passes (next 24 hours)

TLE

FreshSource: Space-Track

Epoch: Sep 14, 2026, 19:57 UTC

1 66919U 25285E   26257.83189376 -.00000081  00000-0  92889-4 0  9990
2 66919  50.0067 184.4740 0000264 288.3513  71.7330 13.29319852 37993

Track HULIANWANG DIGUI-109 in real time with AllMySat

Download on the App Store